Location: Luz Observatory
(34.5000°N, 117.2833°W)
Time: 09:35:56
(UTC-07:00)

Cosmos 1484 Rocket - Visible Passes

Search period start: 01 April 2015 00:00
Search period end: 11 April 2015 00:00
Orbit: 511 x 570 km, 97.4° (Epoch: 31 March)

Date Brightness Start Highest point End Pass type
(mag) Time Alt. Az. Time Alt. Az. Time Alt. Az.
01 Apr 5.7 21:00:57 10° SW 21:02:54 13° W 21:04:42 10° WNW visible
02 Apr 5.6 20:53:08 10° SW 20:55:38 17° W 20:58:00 10° NW visible
03 Apr 5.3 20:45:28 10° SW 20:48:21 20° W 20:51:08 10° NW visible
04 Apr 5.0 20:37:55 10° SSW 20:41:04 25° W 20:44:10 10° NW visible
05 Apr 4.6 20:30:26 10° SSW 20:33:47 31° W 20:37:08 10° NNW visible
06 Apr 4.1 20:23:00 10° SSW 20:26:30 39° W 20:30:03 10° NNW visible
07 Apr 3.6 20:15:37 10° S 20:19:14 49° W 20:22:53 10° NNW visible
08 Apr 3.1 20:08:16 10° S 20:11:57 63° W 20:15:42 10° NNW visible
09 Apr 2.8 20:00:58 10° S 20:04:41 81° WSW 20:08:28 10° NNW visible
10 Apr 2.6 19:53:41 10° SSE 19:57:24 79° E 20:01:12 10° N visible
